Norman Atlantic — IBUM — position and weather

sailwx.info

Track history (hours):
 
Tides and Currents Weather Stations Pressure Air Temp Water Temp Dewpoint Dewpoint Depression Visibility Wind Speed Wind Dir Waves Ship Positions

Norman Atlantic

Last reported at 2014-Sep-23 02:30 UTC. Time now 2014-Sep-30 13:51 UTC.
Position N 38°19' E 014°47'.

Length 186 m; draft 6 m.

Type: Passenger vessel. MMSI: 247277400.

Date/timePositionNaut miles runAvg speedWind from/ knotsBaromVisibWave heightAir tempDewpointWater temp
2014-Sep-23 02:30N 38°19' E 014°47'1718.3
2014-Sep-23 01:32N 38°21' E 014°25'1818.0
2014-Sep-23 00:33N 38°23' E 014°03'1818.2
2014-Sep-22 23:33N 38°26' E 013°40'1918.6
2014-Sep-22 22:33N 38°27' E 013°16'1919.0
2014-Sep-22 21:33N 38°23' E 012°53'2219.3
2014-Sep-22 20:25N 38°15' E 012°26'3919.7
2014-Sep-22 18:27N 38°12' E 011°37'3719.2
2014-Sep-22 16:32N 38°12' E 010°50'1918.7
2014-Sep-22 15:33N 38°10' E 010°27'1918.8
2014-Sep-22 14:33N 38°07' E 010°03'2218.9
2014-Sep-22 13:23N 38°03' E 009°36'1618.9
2014-Sep-22 12:33N 38°01' E 009°16'3819.0
2014-Sep-22 10:32N 37°54' E 008°29'13819.0
2014-Sep-22 03:16N 37°30' E 005°36'1319.1
2014-Sep-22 02:33N 37°27' E 005°20'2219.0
2014-Sep-22 01:24N 37°23' E 004°53'1618.5
2014-Sep-22 00:33N 37°20' E 004°33'4319.5
2014-Sep-21 22:22N 37°13' E 003°40'1819.5
2014-Sep-21 21:28N 37°10' E 003°18'1819.4
2014-Sep-21 20:33N 37°06' E 002°57'1919.4
2014-Sep-21 19:34N 37°03' E 002°33'2219.3
2014-Sep-21 18:26N 36°59' E 002°06'1719.6
2014-Sep-21 17:33N 36°55' E 001°45'2020.2
2014-Sep-21 16:33N 36°50' E 001°21'2019.4
2014-Sep-21 15:31N 36°47' E 000°56'7919.4
2014-Sep-21 11:27N 36°35' W 000°42'22119.4
2014-Sep-21 00:03N 36°00' W 005°12'1121.4
2014-Sep-20 23:33N 35°58' W 005°25'10820.6
2014-Sep-20 18:19N 36°12' W 007°38'66115.8
2014-Sep-19 00:33N 46°44' W 003°18'2020.4
2014-Sep-18 23:33N 46°56' W 002°55'2120.7
2014-Sep-18 22:33N 47°04' W 002°27'1717.3
2014-Sep-18 21:33N 47°17' W 002°10'35 0.9
2014-Sep-17 06:30N 46°54' W 002°47'4419.4
2014-Sep-17 04:13N 46°17' W 003°24'7719.0
2014-Sep-17 00:10N 45°11' W 004°20'7819.4
2014-Sep-16 20:10N 44°04' W 005°15'1219.5
2014-Sep-16 19:32N 43°53' W 005°23'1919.8
2014-Sep-16 18:33N 43°36' W 005°37'0 0.0
2014-Sep-16 08:34N 43°36' W 005°37'1918.6
2014-Sep-16 07:33N 43°52' W 005°24'3718.4
2014-Sep-16 05:33N 44°24' W 004°58'7416.9
2014-Sep-16 01:11N 45°28' W 004°06'3217.4
2014-Sep-15 23:22N 45°55' W 003°43'1518.0
2014-Sep-15 22:33N 46°08' W 003°32'2017.6
2014-Sep-15 21:25N 46°25' W 003°18'3317.5
2014-Sep-15 19:32N 46°53' W 002°52'1817.4
2014-Sep-15 18:28N 47°04' W 002°30'212 7.8
2014-Sep-14 15:14N 44°05' W 005°13'1319.1
2014-Sep-14 14:33N 43°54' W 005°22'1919.3
2014-Sep-14 13:33N 43°38' W 005°35'6 5.5
2014-Sep-14 12:28N 43°33' W 005°41'0 0.0
2014-Sep-14 07:31N 43°33' W 005°41'0 0.0
2014-Sep-14 05:25N 43°33' W 005°41'0 0.0
2014-Sep-14 04:31N 43°33' W 005°41'0 0.0
2014-Sep-14 01:31N 43°33' W 005°41'0 0.0
2014-Sep-13 18:22N 43°33' W 005°41'0 0.0
2014-Sep-13 14:25N 43°33' W 005°41'0 0.0
2014-Sep-13 11:33N 43°34' W 005°41'1514.7
2014-Sep-13 10:33N 43°46' W 005°30'  
Track history (hours):
 
Tides and Currents Weather Stations Pressure Air Temp Water Temp Dewpoint Dewpoint Depression Visibility Wind Speed Wind Dir Waves Ship Positions

Norman Atlantic

Last reported at 2014-Sep-23 02:30 UTC. Time now 2014-Sep-30 13:51 UTC.
Position N 38°19' E 014°47'.

Length 186 m; draft 6 m.

Type: Passenger vessel. MMSI: 247277400.

Date/timePositionNaut miles runAvg speedWind from/ knotsBaromVisibWave heightAir tempDewpointWater temp
2014-Sep-23 02:30N 38°19' E 014°47'1718.3
2014-Sep-23 01:32N 38°21' E 014°25'1818.0
2014-Sep-23 00:33N 38°23' E 014°03'1818.2
2014-Sep-22 23:33N 38°26' E 013°40'1918.6
2014-Sep-22 22:33N 38°27' E 013°16'1919.0
2014-Sep-22 21:33N 38°23' E 012°53'2219.3
2014-Sep-22 20:25N 38°15' E 012°26'3919.7
2014-Sep-22 18:27N 38°12' E 011°37'3719.2
2014-Sep-22 16:32N 38°12' E 010°50'1918.7
2014-Sep-22 15:33N 38°10' E 010°27'1918.8
2014-Sep-22 14:33N 38°07' E 010°03'2218.9
2014-Sep-22 13:23N 38°03' E 009°36'1618.9
2014-Sep-22 12:33N 38°01' E 009°16'3819.0
2014-Sep-22 10:32N 37°54' E 008°29'13819.0
2014-Sep-22 03:16N 37°30' E 005°36'1319.1
2014-Sep-22 02:33N 37°27' E 005°20'2219.0
2014-Sep-22 01:24N 37°23' E 004°53'1618.5
2014-Sep-22 00:33N 37°20' E 004°33'4319.5
2014-Sep-21 22:22N 37°13' E 003°40'1819.5
2014-Sep-21 21:28N 37°10' E 003°18'1819.4
2014-Sep-21 20:33N 37°06' E 002°57'1919.4
2014-Sep-21 19:34N 37°03' E 002°33'2219.3
2014-Sep-21 18:26N 36°59' E 002°06'1719.6
2014-Sep-21 17:33N 36°55' E 001°45'2020.2
2014-Sep-21 16:33N 36°50' E 001°21'2019.4
2014-Sep-21 15:31N 36°47' E 000°56'7919.4
2014-Sep-21 11:27N 36°35' W 000°42'22119.4
2014-Sep-21 00:03N 36°00' W 005°12'1121.4
2014-Sep-20 23:33N 35°58' W 005°25'10820.6
2014-Sep-20 18:19N 36°12' W 007°38'66115.8
2014-Sep-19 00:33N 46°44' W 003°18'2020.4
2014-Sep-18 23:33N 46°56' W 002°55'2120.7
2014-Sep-18 22:33N 47°04' W 002°27'1717.3
2014-Sep-18 21:33N 47°17' W 002°10'35 0.9
2014-Sep-17 06:30N 46°54' W 002°47'4419.4
2014-Sep-17 04:13N 46°17' W 003°24'7719.0
2014-Sep-17 00:10N 45°11' W 004°20'7819.4
2014-Sep-16 20:10N 44°04' W 005°15'1219.5
2014-Sep-16 19:32N 43°53' W 005°23'1919.8
2014-Sep-16 18:33N 43°36' W 005°37'0 0.0
2014-Sep-16 08:34N 43°36' W 005°37'1918.6
2014-Sep-16 07:33N 43°52' W 005°24'3718.4
2014-Sep-16 05:33N 44°24' W 004°58'7416.9
2014-Sep-16 01:11N 45°28' W 004°06'3217.4
2014-Sep-15 23:22N 45°55' W 003°43'1518.0
2014-Sep-15 22:33N 46°08' W 003°32'2017.6
2014-Sep-15 21:25N 46°25' W 003°18'3317.5
2014-Sep-15 19:32N 46°53' W 002°52'1817.4
2014-Sep-15 18:28N 47°04' W 002°30'212 7.8
2014-Sep-14 15:14N 44°05' W 005°13'1319.1
2014-Sep-14 14:33N 43°54' W 005°22'1919.3
2014-Sep-14 13:33N 43°38' W 005°35'6 5.5
2014-Sep-14 12:28N 43°33' W 005°41'0 0.0
2014-Sep-14 07:31N 43°33' W 005°41'0 0.0
2014-Sep-14 05:25N 43°33' W 005°41'0 0.0
2014-Sep-14 04:31N 43°33' W 005°41'0 0.0
2014-Sep-14 01:31N 43°33' W 005°41'0 0.0
2014-Sep-13 18:22N 43°33' W 005°41'0 0.0
2014-Sep-13 14:25N 43°33' W 005°41'0 0.0
2014-Sep-13 11:33N 43°34' W 005°41'1514.7
2014-Sep-13 10:33N 43°46' W 005°30'  

Dump ship's entire track history